Tracking 19484 objects as of 20-Jan-2019
HD Live streaming from Space Station
objects crossing your sky now

FLOCK 2K 38

Track FLOCK 2K 38 now!
10-day predictions
FLOCK 2K 38 is classified as:


NORAD ID: 42868
Int'l Code: 2017-042AV
Perigee: 450.7 km
Apogee: 466.8 km
Inclination: 97.0 °
Period: 93.6 minutes
Semi major axis: 6829 km
RCS: Unknown
Launch date: July 14, 2017
Source: United States (US)
Launch site: TYURATAM MISSILE AND SPACE COMPLEX (TTMTR)
aabbcc
Your satellite tracking list
Your tracking list is empty




NASA's NSSDC Master Catalog

Two Line Element Set (TLE):
1 42868U 17042AV  19020.20947761  .00003261  00000-0  88700-4 0  9999
2 42868  96.9595 270.7289 0011827  50.9295 309.3002 15.38136984 84981
Source of the keplerian elements: AFSPC